When you browse on this site, cookies collect data to enhance your experience and personalize the content and advertising you see.
Visit our Privacy Policy to learn more. By continuing to use the site, you agree to this use of cookies and data.
  • In Latvia
  • List of Countries
  • For 7 days
  • Water Temperature
  • Weather Map
  • Weather Widgets
  • user-avatar
    Login

    Hourly Weather Portland

    Today, 23 September, Monday

    Time Temperature Precipitation Wind Pressure Humidity
    00:00 +13°C° 0.1 mm 0 mps 762 mmHg 91%
    01:00 +13°C° 0.1 mm 0 mps 762 mmHg 91%
    02:00 +14°C° 0 mm 1 mps 763 mmHg 91%
    03:00 +14°C° 0 mm 1 mps 763 mmHg 91%
    04:00 +13°C° 0 mm 1 mps 764 mmHg 91%
    05:00 +14°C° 0 mm 1 mps 764 mmHg 90%
    06:00 +13°C° 0 mm 0 mps 764 mmHg 89%
    07:00 +13°C° 0 mm 0 mps 765 mmHg 87%
    08:00 +14°C° 0 mm 0 mps 765 mmHg 83%
    09:00 +15°C° 0 mm 0 mps 766 mmHg 79%
    10:00 +16°C° 0 mm 0 mps 766 mmHg 75%
    11:00 +17°C° 0 mm 0 mps 766 mmHg 71%
    12:00 +19°C° 0 mm 1 mps 766 mmHg 67%
    13:00 +20°C° 0 mm 1 mps 765 mmHg 63%
    14:00 +20°C° 0 mm 1 mps 765 mmHg 64%
    15:00 +17°C° 0 mm 0 mps 765 mmHg 64%
    16:00 +17°C° 0 mm 0 mps 765 mmHg 65%
    17:00 +17°C° 0 mm 0 mps 765 mmHg 66%
    18:00 +16°C° 0 mm 0 mps 766 mmHg 68%
    19:00 +16°C° 0 mm 0 mps 766 mmHg 69%
    20:00 +16°C° 0 mm 0 mps 766 mmHg 69%
    21:00 +16°C° 0 mm 0 mps 766 mmHg 69%
    22:00 +16°C° 0 mm 0 mps 766 mmHg 70%
    23:00 +16°C° 0 mm 0 mps 766 mmHg 70%

    Tomorrow, 24 September, Tuesday

    Time Temperature Precipitation Wind Pressure Humidity
    00:00 +15°C° 0 mm 0 mps 766 mmHg 70%
    01:00 +15°C° 0 mm 0 mps 766 mmHg 70%
    02:00 +16°C° 0 mm 1 mps 766 mmHg 70%
    03:00 +16°C° 0 mm 1 mps 766 mmHg 70%
    04:00 +16°C° 0 mm 1 mps 766 mmHg 70%
    05:00 +16°C° 0 mm 1 mps 766 mmHg 70%
    06:00 +16°C° 0 mm 1 mps 766 mmHg 71%
    07:00 +16°C° 0 mm 1 mps 766 mmHg 71%
    08:00 +18°C° 0 mm 1 mps 766 mmHg 68%
    09:00 +20°C° 0 mm 1 mps 766 mmHg 65%
    10:00 +21°C° 0 mm 1 mps 766 mmHg 62%
    11:00 +23°C° 0 mm 1 mps 766 mmHg 58%
    12:00 +24°C° 0 mm 1 mps 766 mmHg 55%
    13:00 +26°C° 0 mm 1 mps 766 mmHg 51%
    14:00 +26°C° 0 mm 1 mps 765 mmHg 51%
    15:00 +25°C° 0 mm 1 mps 765 mmHg 51%
    16:00 +25°C° 0 mm 2 mps 765 mmHg 51%
    17:00 +23°C° 0 mm 2 mps 765 mmHg 58%
    18:00 +20°C° 0 mm 2 mps 765 mmHg 65%
    19:00 +18°C° 0 mm 3 mps 765 mmHg 72%
    20:00 +17°C° 0 mm 2 mps 765 mmHg 76%
    21:00 +16°C° 0 mm 2 mps 765 mmHg 79%
    22:00 +15°C° 0 mm 2 mps 766 mmHg 83%
    23:00 +15°C° 0 mm 1 mps 766 mmHg 84%

    Day after tomorrow, 25 September, Wednesday

    Time Temperature Precipitation Wind Pressure Humidity
    00:00 +14°C° 0 mm 1 mps 766 mmHg 85%
    01:00 +14°C° 0 mm 1 mps 766 mmHg 86%
    02:00 +13°C° 0 mm 1 mps 766 mmHg 86%
    03:00 +13°C° 0 mm 1 mps 766 mmHg 87%
    04:00 +12°C° 0 mm 0 mps 766 mmHg 87%
    05:00 +12°C° 0 mm 0 mps 766 mmHg 86%
    06:00 +12°C° 0 mm 0 mps 766 mmHg 86%
    07:00 +12°C° 0 mm 0 mps 766 mmHg 85%
    08:00 +15°C° 0 mm 1 mps 766 mmHg 76%
    09:00 +18°C° 0 mm 1 mps 766 mmHg 68%
    10:00 +19°C° 0 mm 1 mps 765 mmHg 60%
    11:00 +19°C° 0 mm 2 mps 765 mmHg 55%
    12:00 +21°C° 0 mm 2 mps 765 mmHg 50%
    13:00 +23°C° 0 mm 2 mps 764 mmHg 46%
    14:00 +23°C° 0 mm 2 mps 764 mmHg 45%
    15:00 +23°C° 0 mm 2 mps 764 mmHg 44%
    16:00 +24°C° 0 mm 2 mps 763 mmHg 43%
    17:00 +21°C° 0 mm 2 mps 763 mmHg 49%
    18:00 +20°C° 0 mm 1 mps 763 mmHg 55%
    19:00 +19°C° 0 mm 1 mps 763 mmHg 61%
    20:00 +18°C° 0 mm 1 mps 763 mmHg 63%
    21:00 +16°C° 0 mm 1 mps 763 mmHg 65%
    22:00 +15°C° 0 mm 0 mps 763 mmHg 67%
    23:00 +14°C° 0 mm 0 mps 763 mmHg 69%

    26 September, Thursday

    Time Temperature Precipitation Wind Pressure Humidity
    00:00 +14°C° 0 mm 0 mps 763 mmHg 71%
    01:00 +14°C° 0 mm 0 mps 762 mmHg 73%
    02:00 +14°C° 0 mm 0 mps 762 mmHg 71%
    03:00 +16°C° 0 mm 1 mps 762 mmHg 70%
    04:00 +16°C° 0 mm 1 mps 761 mmHg 68%
    05:00 +16°C° 0 mm 1 mps 761 mmHg 69%
    06:00 +16°C° 0 mm 1 mps 761 mmHg 69%
    07:00 +16°C° 0 mm 1 mps 761 mmHg 70%
    08:00 +18°C° 0 mm 1 mps 761 mmHg 72%
    09:00 +18°C° 0 mm 1 mps 761 mmHg 74%
    10:00 +18°C° 0 mm 1 mps 761 mmHg 76%
    11:00 +19°C° 0 mm 1 mps 761 mmHg 76%
    12:00 +19°C° 0 mm 1 mps 760 mmHg 77%
    13:00 +20°C° 0 mm 1 mps 760 mmHg 78%
    14:00 +20°C° 0.1 mm 1 mps 760 mmHg 77%
    15:00 +20°C° 0.1 mm 1 mps 760 mmHg 77%
    16:00 +20°C° 0.1 mm 1 mps 760 mmHg 76%
    17:00 +19°C° 0 mm 1 mps 760 mmHg 79%
    18:00 +18°C° 0 mm 1 mps 760 mmHg 82%
    19:00 +16°C° 0 mm 1 mps 760 mmHg 85%
    20:00 +15°C° 0 mm 1 mps 761 mmHg 85%
    21:00 +15°C° 0 mm 1 mps 761 mmHg 85%
    22:00 +14°C° 0 mm 1 mps 761 mmHg 86%
    23:00 +13°C° 0 mm 1 mps 761 mmHg 86%

    27 September, Friday

    Time Temperature Precipitation Wind Pressure Humidity
    00:00 +13°C° 0 mm 1 mps 761 mmHg 87%
    01:00 +13°C° 0 mm 1 mps 761 mmHg 87%
    02:00 +11°C° 0 mm 0 mps 761 mmHg 87%
    03:00 +11°C° 0 mm 0 mps 761 mmHg 87%
    04:00 +11°C° 0 mm 0 mps 761 mmHg 87%
    05:00 +11°C° 0 mm 0 mps 761 mmHg 86%
    06:00 +12°C° 0 mm 0 mps 761 mmHg 84%
    07:00 +12°C° 0 mm 0 mps 761 mmHg 83%
    08:00 +13°C° 0 mm 0 mps 761 mmHg 77%
    09:00 +15°C° 0 mm 0 mps 761 mmHg 71%
    10:00 +16°C° 0 mm 0 mps 760 mmHg 65%
    11:00 +20°C° 0 mm 1 mps 760 mmHg 58%
    12:00 +21°C° 0 mm 1 mps 759 mmHg 51%
    13:00 +22°C° 0 mm 1 mps 759 mmHg 44%
    14:00 +22°C° 0 mm 1 mps 758 mmHg 43%
    15:00 +22°C° 0 mm 1 mps 758 mmHg 43%
    16:00 +22°C° 0 mm 1 mps 757 mmHg 43%
    17:00 +21°C° 0 mm 1 mps 757 mmHg 48%
    18:00 +20°C° 0 mm 1 mps 757 mmHg 53%
    19:00 +19°C° 0 mm 1 mps 757 mmHg 58%
    20:00 +18°C° 0.7 mm 1 mps 756 mmHg 66%
    21:00 +16°C° 0.7 mm 1 mps 756 mmHg 74%
    22:00 +15°C° 0.7 mm 1 mps 755 mmHg 82%
    23:00 +14°C° 1.9 mm 1 mps 755 mmHg 85%

    28 September, Saturday

    Time Temperature Precipitation Wind Pressure Humidity
    00:00 +14°C° 1.9 mm 1 mps 754 mmHg 87%
    01:00 +14°C° 1.9 mm 2 mps 754 mmHg 89%
    02:00 +14°C° 1.5 mm 2 mps 753 mmHg 89%
    03:00 +14°C° 1.5 mm 1 mps 753 mmHg 89%
    04:00 +14°C° 1.5 mm 1 mps 752 mmHg 90%
    05:00 +14°C° 2.4 mm 1 mps 752 mmHg 91%
    06:00 +14°C° 2.4 mm 1 mps 752 mmHg 92%
    07:00 +14°C° 2.4 mm 1 mps 751 mmHg 93%
    08:00 +14°C° 0.6 mm 1 mps 751 mmHg 92%
    09:00 +14°C° 0.6 mm 1 mps 751 mmHg 90%
    10:00 +15°C° 0.6 mm 1 mps 751 mmHg 89%
    11:00 +15°C° 0.2 mm 1 mps 751 mmHg 88%
    12:00 +16°C° 0.2 mm 1 mps 751 mmHg 87%
    13:00 +16°C° 0.2 mm 1 mps 751 mmHg 86%
    14:00 +16°C° 0.1 mm 1 mps 751 mmHg 87%
    15:00 +16°C° 0.1 mm 1 mps 751 mmHg 88%
    16:00 +16°C° 0.1 mm 1 mps 751 mmHg 89%
    17:00 +16°C° 0.4 mm 1 mps 751 mmHg 90%
    18:00 +15°C° 0.4 mm 0 mps 751 mmHg 92%
    19:00 +15°C° 0.4 mm 0 mps 751 mmHg 93%
    20:00 +15°C° 0.7 mm 1 mps 752 mmHg 92%
    21:00 +14°C° 0.7 mm 2 mps 752 mmHg 91%
    22:00 +14°C° 0.7 mm 2 mps 752 mmHg 90%
    23:00 +14°C° 0.3 mm 2 mps 753 mmHg 87%
    Show more